{"data":{"norad_id":63006,"epoch":"2026-05-25T04:00:03.998880Z","epoch_age_seconds":63722,"freshness":"FRESH","line1":"1 63006U 25032B   26145.16671295 -.00078977  00000+0 -61722-3 0  9992","line2":"2 63006  43.0002  94.7501 0001495 268.9948 225.1044 15.70863754  5972","mean_motion":15.70863754,"eccentricity":0.0001495,"inclination_deg":43.0002,"raan_deg":94.7501,"arg_perigee_deg":268.9948,"mean_anomaly_deg":225.1044,"bstar":-0.00061722,"rev_number":597,"period_min":91.669312270604,"perigee_km":355.4203517032,"apogee_km":357.43398638975,"semimajor_km":6734.5641690465,"source":"CELESTRAK","updated_at":"2026-05-25T13:38:19.835045Z"}}